Showing default

DIWATA 2B, 43678

Orbit data source: Space-Track

DIWATA 2B, 43678 is a Filipino payload satellite in SSO that was launched on Mon, 29 Oct 2018 UTC via an H-IIA 202 launch vehicle from the Tanegashima Space Center (TNSTA). Payload-class satellites include a variety of spacecraft equipped with specific instruments for various scientific and technological missions. These include communications satellites like Starlink; space stations such as the ISS; scientific satellites like the Hubble; Earth observation satellites from companies like Planet Labs, Umbra, and HawkEye 360; GPS; miniature CubeSats for education and research; and military/defense satellites.

Loading next visibility...
Identifier
43678, 2018-084H
Orbit
SSO
Country
Flag of RPRP
Related business
Manufacturer
UPD/HOKK
Mission
Operational Civil Imaging
Bus & Motor
DIWATA, Unknown motor
Mass
56 kg wet, 56 kg dry
Launch date (UTC)
2018-10-29 (7 years ago)
Launch vehicle
H-IIA 202
Launch site
Tanegashima Space Center (TNSTA)
Object type
Payload
Rocket body
Debris
Shape & HBR
Box + 2 Pan, 0.8 m
Radar Cross Section
0.514 m², Medium (>0.1 m² and < 1m²)

Expand to show TLE details & history
Last TLE update: 10 hours ago

TLE from 10 hours ago
0 DIWATA 2B
1 43678U 18084H   25352.59123101  .00002365  00000-0  19800-3 0  9995
2 43678  98.1019 176.2889 0007622  31.5778 328.5900 14.99466484389144
Epoch: 2025-12-18T14:11Z
TLE epoch observation values (Epoch: 2025-12-18T14:11:22.359Z)
Latitude
-0°
Longitude
-123.9988°
Altitude
567.067 km
Speed
7.58 km/s
True Right ascension
11h 45m 09s
True Declination
0° 00' 00"
Sunlit
Object was in daylight at epoch
Visualization orbit readout
Latitude
Unknown
Longitude
Unknown
Altitude
Unknown
Speed
Unknown
Apparent Right ascension
Unknown
Apparent Declination
Unknown
Sunlit
N/A
Visualization observer readout
Local Sidereal Time
23:29:08
Azimuth
Unknown
Elevation
Unknown
Doppler factor
Unknown
Orbital elements
Apogee altitude
570.86 km
Perigee altitude
560.275 km
Semi-major axis
6,943.705 km
Eccentricity
0.00076
Inclination
98.1019°
RAAN
176.2889°
Arg. of periapsis
31.5778°
True anomaly
328.54444°
Mean anomaly
328.59°
Eccentric anomaly
328.56723°
Mean motion
3.75108 °/min
Orbital period
95.97 mins
BSTAR
0.000198
Loading maneuver chart data...
Computing Atmospheric mass density...
Loading historical data...
Loading historical data...
Loading historical data...
Loading historical data...
Loading historical data...
Loading historical data...
Loading historical data...

Documentation

Showing up to 5 results
|